Total_Precipitation_Accumulation
1.87 2.09 2.59 2.33 2.11 2.01 2.05 2.06 1.90 1.91 2.05 2.19 2.23 2.25 2.29 2.31 2.34 2.42 2.49 2.55 2.73 2.90 2.87 2.82 2.69 2.76 2.75 2.67 2.38 2.09 1.90 1.89 1.79 1.65 1.46 1.43 1.55 1.76 2.14 2.30 2.16 1.61 1.56
1.60 1.96 2.41 2.20 2.02 1.99 1.96 1.94 1.83 1.83 2.01 2.14 2.26 2.23 2.29 2.21 2.18 2.19 2.33 2.63 2.90 2.95 2.88 2.65 2.53 2.63 2.61 2.53 2.23 2.02 1.86 1.88 1.81 1.80 1.61 1.36 1.61 2.01 2.33 2.40 2.43 1.71 1.61
1.30 1.66 1.81 1.94 1.84 1.85 1.87 1.93 2.13 2.17 2.21 2.20 2.26 2.19 2.18 2.15 2.15 2.19 2.38 2.58 2.74 2.58 2.52 2.46 2.48 2.38 2.29 2.20 2.03 1.89 1.82 1.76 1.85 2.05 2.19 1.49 1.30 1.99 2.25 2.29 2.15 1.62 1.45
1.16 1.37 1.48 1.66 1.60 1.56 1.72 1.93 2.17 2.30 2.33 2.33 2.27 2.16 2.07 2.15 2.17 2.18 2.18 2.25 2.25 2.07 2.02 2.14 2.26 2.19 2.09 1.87 1.79 1.83 1.82 1.86 2.09 2.49 2.57 1.77 1.31 1.66 2.00 1.93 1.73 1.47 1.30
1.13 1.35 1.53 1.56 1.42 1.35 1.49 1.73 2.01 2.19 2.19 2.18 2.10 2.05 2.07 2.03 2.02 2.05 2.03 2.04 1.97 1.91 1.85 1.93 2.06 2.13 2.00 1.74 1.69 1.79 1.83 1.96 2.33 2.44 2.15 2.05 1.93 1.89 1.92 1.83 1.67 1.48 1.33
0.86 1.09 1.34 1.50 1.38 1.37 1.58 1.73 1.84 1.93 1.95 1.95 2.00 2.07 2.02 1.94 1.93 1.86 1.77 1.76 1.78 1.76 1.68 1.74 1.94 2.05 1.96 1.76 1.70 1.89 2.06 2.27 2.35 1.94 1.80 1.83 1.90 2.00 1.94 1.98 1.91 1.69 1.52
0.67 0.88 1.13 1.42 1.36 1.39 1.52 1.64 1.78 1.91 1.95 1.93 1.99 1.90 1.90 1.87 1.78 1.65 1.51 1.54 1.59 1.58 1.50 1.56 1.71 1.87 1.97 1.92 1.87 2.09 2.22 2.40 2.17 1.78 1.71 1.92 1.79 1.70 1.83 2.03 2.20 2.02 1.71
0.53 0.72 0.93 1.23 1.30 1.31 1.36 1.52 1.79 1.88 1.92 1.87 1.74 1.63 1.64 1.61 1.54 1.46 1.39 1.45 1.47 1.34 1.28 1.37 1.55 1.58 1.80 2.03 2.12 2.21 2.14 2.03 1.67 1.63 1.57 1.64 1.34 1.43 1.72 1.96 2.12 2.02 1.75
0.48 0.59 0.82 1.03 1.18 1.22 1.34 1.48 1.59 1.54 1.53 1.47 1.41 1.46 1.56 1.60 1.46 1.38 1.38 1.49 1.43 1.37 1.36 1.46 1.61 1.56 1.77 2.06 2.02 1.91 2.00 1.87 1.54 1.63 1.50 1.64 1.52 1.66 1.94 2.03 1.97 1.98 1.78
0.68 0.70 0.88 0.96 1.04 1.13 1.24 1.33 1.38 1.42 1.38 1.35 1.35 1.39 1.41 1.47 1.45 1.41 1.43 1.58 1.44 1.37 1.37 1.62 1.81 1.72 1.89 1.99 1.93 1.99 2.13 1.83 1.45 1.48 1.56 1.44 1.55 1.87 2.22 2.23 2.13 2.11 1.98
1.02 0.98 0.93 0.93 0.92 0.97 1.05 1.16 1.35 1.39 1.37 1.32 1.31 1.27 1.33 1.42 1.34 1.41 1.53 1.78 1.67 1.57 1.51 1.74 1.98 2.19 2.17 1.96 2.06 2.17 2.09 1.82 1.84 1.76 1.72 1.48 1.63 2.06 2.38 2.35 2.32 2.37 2.23
1.20 1.18 1.13 1.10 0.94 0.91 0.95 1.20 1.33 1.18 1.24 1.29 1.35 1.31 1.40 1.55 1.64 1.56 1.90 2.07 2.13 2.14 2.06 2.17 2.30 2.25 2.03 2.06 2.56 2.66 2.03 1.97 1.90 1.94 2.04 1.84 2.01 2.45 2.69 2.48 2.34 2.44 2.35
1.37 1.14 1.19 1.42 1.32 1.23 1.36 1.28 1.28 1.33 1.48 1.48 1.38 1.41 1.60 1.44 1.39 1.60 1.85 2.08 2.22 2.29 2.45 2.70 2.78 2.38 2.42 2.73 2.96 2.72 2.13 1.88 1.90 1.84 2.11 2.15 2.29 2.77 3.10 2.84 2.59 2.57 2.53
1.56 1.26 1.20 1.35 1.58 1.61 1.54 1.44 1.35 1.30 1.40 1.47 1.61 1.57 1.72 1.74 1.75 1.90 2.28 2.39 2.55 2.59 2.97 3.03 3.35 3.07 2.76 2.66 2.78 2.63 2.39 2.28 2.08 2.20 2.41 2.06 2.21 2.77 3.31 3.26 3.07 2.91 2.75
1.81 1.60 1.47 1.42 1.65 1.75 1.78 1.68 1.50 1.48 1.48 1.67 1.83 1.86 1.94 2.07 2.33 2.55 2.62 2.89 2.78 2.74 2.97 3.38 3.36 3.55 3.58 3.52 3.29 2.90 2.84 2.68 2.41 2.51 2.59 2.47 2.37 2.64 3.21 3.62 3.52 3.27 2.96
2.24 2.08 1.83 1.64 1.65 1.78 1.86 1.91 1.91 1.79 1.96 2.04 2.17 2.24 2.41 2.63 2.90 3.18 3.22 3.31 3.04 2.96 3.30 3.59 3.69 4.18 4.12 3.94 3.42 3.13 2.99 2.90 2.64 2.51 2.70 2.79 2.45 2.41 2.85 3.61 3.91 3.71 3.47
2.52 2.50 2.35 2.18 2.16 2.28 2.54 2.53 2.32 2.39 2.45 2.59 2.76 2.80 2.85 2.99 3.35 3.61 3.54 3.39 3.31 3.25 3.54 3.87 4.04 4.18 3.94 3.76 3.58 3.38 3.22 2.98 2.57 2.56 2.60 2.81 2.65 2.46 2.74 3.19 3.65 3.78 3.86
2.63 2.96 3.00 2.78 2.93 3.10 3.33 3.35 3.06 3.01 3.01 3.08 3.06 3.08 3.07 3.19 3.44 3.89 3.65 3.42 3.69 3.48 3.70 4.29 4.35 4.31 4.27 4.02 3.81 3.46 3.25 3.08 2.58 2.46 2.44 2.72 3.08 2.66 2.74 3.11 3.34 3.47 3.98
2.78 3.26 3.46 3.55 3.73 3.77 3.84 3.85 3.77 3.63 3.52 3.28 3.29 3.26 3.11 3.13 3.28 3.66 3.53 3.56 3.59 3.87 3.95 3.69 4.34 4.47 4.34 4.11 3.49 3.27 2.91 2.77 2.67 2.37 2.49 2.58 2.95 2.77 2.75 2.82 3.11 3.30 3.91
3.19 3.58 4.05 4.23 4.32 4.11 4.01 4.02 3.89 3.66 3.52 3.34 3.31 3.27 3.05 3.08 3.15 3.61 3.42 3.39 3.45 3.85 3.91 3.90 4.35 4.35 4.08 4.04 3.22 2.98 2.81 2.41 2.40 2.45 2.30 2.48 2.66 2.30 2.47 2.79 3.26 2.90 3.17
3.72 3.99 4.27 4.66 4.79 4.56 4.53 4.50 4.41 4.13 3.98 3.63 3.21 2.86 2.79 2.80 3.02 3.50 3.19 3.51 3.43 3.59 3.66 3.66 3.99 4.12 3.78 3.84 3.81 3.33 2.63 2.22 2.17 2.18 2.22 2.37 2.36 2.41 2.91 3.41 3.54 3.43 3.22
3.55 4.05 4.39 4.38 4.27 4.01 4.14 4.46 4.71 4.70 4.20 3.61 3.26 3.13 2.77 2.71 2.83 3.00 3.23 3.16 3.19 3.38 3.39 3.46 3.81 3.81 3.42 3.55 3.81 3.88 3.13 2.78 2.26 1.74 2.09 2.21 2.28 2.60 2.79 2.95 3.31 3.63 3.70
2.99 3.50 3.64 3.51 3.44 3.31 3.39 3.71 3.95 4.20 3.95 3.64 3.34 3.08 2.74 2.66 2.62 2.71 2.91 2.94 2.96 2.84 3.09 3.34 3.33 3.39 3.34 3.31 3.36 3.80 3.51 3.08 2.58 2.01 1.90 2.01 2.30 2.55 2.55 2.75 2.79 3.09 3.33
2.12 2.38 2.57 2.77 2.87 2.88 2.92 3.13 3.33 3.51 3.47 3.35 3.24 2.97 2.68 2.42 2.38 2.46 2.54 2.55 2.59 2.57 2.87 2.65 2.74 3.07 3.34 3.20 3.12 3.06 3.14 3.27 3.14 2.50 2.02 1.92 2.14 2.30 2.30 2.26 2.50 2.85 2.94
1.84 2.05 2.29 2.59 2.74 2.82 2.80 2.89 3.11 3.41 3.42 3.18 2.94 2.88 2.70 2.47 2.25 2.17 2.32 2.39 2.38 2.33 2.43 2.50 2.82 2.84 2.99 3.00 2.98 2.98 3.09 3.13 2.96 2.77 2.41 2.25 2.18 1.95 1.94 2.08 2.29 2.64 2.84
1.66 1.90 2.13 2.37 2.38 2.49 2.56 2.57 2.63 2.81 2.95 2.79 2.61 2.55 2.36 2.20 2.06 2.01 2.10 2.33 2.25 2.20 2.32 2.42 2.53 2.55 2.67 2.78 2.77 2.77 3.00 2.87 2.80 2.90 2.61 2.45 2.35 2.02 1.97 2.05 2.18 2.41 2.56